Regional Weather Roundup
Issued by NWS

Home | Current Version | Previous Version | Text Only | Print | Product List | Glossary On
Versions: 1 2 3 4 5 6 7 8 9 10 11 12 13 14 15 16 17 18 19 20 21 22 23 24 25 26 27 28 29 30 31 32 33 34 35 36 37 38 39 40 41 42 43 44 45 46 47 48 49 50
000
ASUS43 KOAX 212102
RWRNE

WEATHER ROUNDUP FOR NEBRASKA
NATIONAL WEATHER SERVICE OMAHA NE
400 PM CDT SUN SEP 21 2014

NOTES: SATELLITE DATA IS BEING USED TO AUGMENT CLOUD COVER ABOVE
       12000 FEET.
       "FAIR" INDICATES FEW OR NO CLOUDS BELOW 12,000 FEET WITH NO
       SIGNIFICANT WEATHER AND/OR OBSTRUCTIONS TO VISIBILITY.

  * THESE STATIONS DO NOT REPORT WEATHER SUCH AS RAIN...SNOW OR FOG.

NEZ001>004-019>022-054>056-212200-
NEBRASKA PANHANDLE

CITY           SKY/WX    TMP DP  RH WIND       PRES   REMARKS
SCOTTSBLUFF    SUNNY     75  40  28 E17       30.29F
ALLIANCE       MOSUNNY   74  38  27 E9        30.30F
CHADRON        SUNNY     77  40  26 E7        30.26F
SIDNEY         PTSUNNY   75  39  27 SE15      30.33F
$$

NEZ057>060-069>072-079>082-212200-
SOUTHWEST NEBRASKA

CITY           SKY/WX    TMP DP  RH WIND       PRES   REMARKS
NORTH PLATTE   SUNNY     76  39  26 MISG      30.28F
IMPERIAL       MOSUNNY   76  37  24 E7        30.30F
LEXINGTON      SUNNY     75  39  26 N8        30.27S
MCCOOK         SUNNY     78  39  24 NE8       30.28F
OGALLALA       MOSUNNY   76  40  27 SE6       30.30F
$$

NEZ005>010-023>029-035>040-094-212200-
NORTH CENTRAL NEBRASKA

CITY           SKY/WX    TMP DP  RH WIND       PRES   REMARKS
VALENTINE      SUNNY     74  37  26 N8        30.29F
AINSWORTH      SUNNY     70  38  30 N5        30.29F
BROKEN BOW     SUNNY     77  36  22 N12G18    30.27F
O`NEILL        SUNNY     71  45  39 N9G21     30.27S
ORD            SUNNY     74  42  31 N15G22    30.25F
THEDFORD       SUNNY     74  39  27 N6        30.30F
$$

NEZ041-046>049-061>064-073>077-083>087-212200-
SOUTH CENTRAL NEBRASKA

CITY           SKY/WX    TMP DP  RH WIND       PRES   REMARKS
GRAND ISLAND   SUNNY     75  41  29 N15       30.26S
AURORA         SUNNY     73  37  27 N10       30.25S
HASTINGS       SUNNY     74  40  29 NE12      30.25F
HEBRON         SUNNY     75  38  25 N10G18    30.23S
HOLDREGE       SUNNY     74  38  27 N9        30.27S
KEARNEY *      SUNNY     73  39  29 NW13      30.26F
YORK           SUNNY     72  48  43 N8G16     30.24S
$$

NEZ011>018-030>034-042>045-212200-
NORTHEAST NEBRASKA

CITY           SKY/WX    TMP DP  RH WIND       PRES   REMARKS
NORFOLK        SUNNY     72  44  36 N13       30.23S
ALBION         SUNNY     72  41  32 N13G18    30.25F
BLAIR          MOSUNNY   71  46  40 NW13G23   30.21S
COLUMBUS *     SUNNY     72  45  37 NW10G18   30.24F
FREMONT        SUNNY     72  45  36 N15G21    30.23R
TEKAMAH        MOSUNNY   74  46  36 NW15G23   30.21S
WAYNE          MOSUNNY   71  47  41 NW14      30.24S
$$

NEZ050>053-065>068-078-088>093-212200-
SOUTHEAST NEBRASKA

CITY           SKY/WX    TMP DP  RH WIND       PRES   REMARKS
LINCOLN        SUNNY     74  47  38 N18G24    30.22S
OMAHA EPPLEY   MOSUNNY   71  47  42 N15G28    30.20S
BEATRICE       SUNNY     74  45  35 N12       30.21F
FALLS CITY     SUNNY     74  47  38 N13G23    30.17F
NEBRASKA CITY    N/A     72  36  26 N18G24    30.20S
PLATTSMOUTH    SUNNY     72  43  35 NW15      30.20S
$$

NEZ044-045-051>053-067-212200-
OMAHA AREA

CITY           SKY/WX    TMP DP  RH WIND       PRES   REMARKS
OMAHA EPPLEY   MOSUNNY   71  47  42 N15G28    30.20S
BLAIR          MOSUNNY   71  46  40 NW13G23   30.21S
FREMONT        SUNNY     72  45  36 N15G21    30.23R
MILLARD        SUNNY     71  48  43 N12G17    30.21S
OFFUTT AFB     MOSUNNY   74  51  44 N8        30.20S
PLATTSMOUTH    SUNNY     72  43  35 NW15      30.20S
WAHOO          FAIR      73  43  33 NW15      30.22S
$$


USA.gov is the U.S. government's official web portal to all federal, state and local government web resources and services.